Regional Weather Roundup
Issued by NWS

Home | Current Version | Previous Version | Graphics & Text | Print | Product List | Glossary On
Versions: 1 2 3 4 5 6 7 8 9 10 11 12 13 14 15 16 17 18 19 20 21 22 23 24 25 26 27 28
000
ASUS45 KCYS 231510
RWRWY

WYOMING REGIONAL WEATHER ROUNDUP
NATIONAL WEATHER SERVICE CHEYENNE WY
900 AM MDT SUN APR 23 2017

NOTE:  "FAIR" INDICATES FEW OR NO CLOUDS BELOW 12,000 FEET
WITH NO SIGNIFICANT WEATHER AND/OR OBSTRUCTIONS TO VISIBILITY.

WYZ001-231600-
YELLOWSTONE NATIONAL PARK

CITY           SKY/WX    TMP DP  RH WIND       PRES   REMARKS
LK YELLOWSTONE   N/A     30  29  96 CALM      29.95F
W YELLOWSTONE  NOT AVBL

$$
WYZ002>013-054>058-071-098>099-231600-
NORTHERN WYOMING

CITY           SKY/WX    TMP DP  RH WIND       PRES   REMARKS
JACKSON        MOSUNNY   37  27  65 CALM      29.93F
CODY           PTSUNNY   50  33  52 SE9       29.83F
GREYBULL       FAIR      45  37  73 E3        29.82F
WORLAND        FAIR      49  43  80 SW3       29.82F
SHERIDAN       FAIR      45  37  73 CALM      29.81F
BUFFALO        FAIR      52  32  46 CALM      29.86S
GILLETTE       FAIR      51  37  58 CALM      29.84S
HULETT         FAIR      54  32  43 SW10      29.86R
NEWCASTLE      FAIR      52  30  43 SE12      29.87S

$$
WYZ014>020-022>026-101>103-231600-
CENTRAL WYOMING

CITY           SKY/WX    TMP DP  RH WIND       PRES   REMARKS
BIG PINEY      FAIR      39  25  57 CALM      29.96F
PINEDALE       FAIR      41  25  52 E6        29.97F
DUBOIS         FAIR      45  23  42 SE3       29.89F
LANDER         FAIR      49  30  48 CALM      29.86F
RIVERTON       FAIR      49  31  49 SE3       29.87F
CASPER         FAIR      52  29  41 SW16      29.88F
DOUGLAS        FAIR      47  35  63 CALM      29.89F

$$
WYZ021-027>030-104>119-231600-
SOUTHERN WYOMING

CITY           SKY/WX    TMP DP  RH WIND       PRES   REMARKS
EVANSTON       FAIR      46  24  42 S7        29.94F
KEMMERER         N/A     39  30  70 N8        29.95F WCI  34
FORT BRIDGER   FAIR      46  27  48 SE5       29.98S
ROCK SPRINGS   FAIR      42  26  53 CALM      29.96F
DIXON            N/A     50  26  38 S3        30.03F
RAWLINS        FAIR      53  18  25 S17G24    29.96F
SARATOGA       FAIR      54  19  26 S15G21    29.99F
LARAMIE        FAIR      50  23  34 SW15      29.98F
CHEYENNE       FAIR      49  33  54 SW10      29.97F
TORRINGTON     FAIR      50  36  58 SE8       29.91F
PINE BLUFFS    FAIR      45  36  70 SW10G16   29.97F

$$




USA.gov is the U.S. government's official web portal to all federal, state and local government web resources and services.